LANDSAT 9 (49260 NORAD) Tracking and Keplerian Element Data

This shows tracking and keplerian element data for the satellite.

Feedback or suggestion? Click here.




ElementValue
Catalog49260
NameLANDSAT 9
Epoch Orbit254
Epoch Day288.16039362
Epoch Year2021
RAAN356.7505
Inclination98.2172
Eccentricity0.0011613
Argument of Perigee225.1332
Mean Anonmoly134.899
Mean Motion14.64255281
Decay Rate-7.4E-07
L11 49260U 21088A 21288.16039362 -.00000074 00000-0 -48265-5 0 9994
L22 49260 98.2172 356.7505 0011613 225.1332 134.8990 14.64255281 2546

Live tracking and technical data element details for LANDSAT 9 (NORAD 49260). LANDSAT 9 can be tracked NOW for your location showing map with azimuth and elevation plus other details from your city location.

Track the satellite on the map from your city or location and see movement details for azimuth, elevation, latitude, longitude, range, height, and movement on the map or in text.







IsCatalogInMostPopularTable: catalog: 49260, numindb: 38
Update: records affected: 1



GetName: 49260 LANDSAT 9

Hit Count: updated at: Tue, 19 Oct 2021 07:54:52 GMT